Miscellaneous Local Product
Issued by NWS Hastings, NE

Home | Current Version | Previous Version | Text Only | Print | Product List | Glossary Off
Versions: 1 2 3 4 5 6 7 8 9 10 11 12 13 14 15 16 17 18 19 20 21 22 23 24 25 26 27 28 29 30 31 32 33 34 35 36 37 38 39 40 41 42 43 44 45 46 47 48 49 50

000
AXUS43 KGID 192302
MISGRI

GID CWA HOURLY WEATHER ROUNDUP
NATIONAL WEATHER SERVICE HASTINGS NE
500 PM CST THU JAN 19 2017

NOTE: "FAIR" INDICATES FEW OR NO CLOUDS BELOW 12,000 FEET WITH NO
SIGNIFICANT WEATHER AND/OR OBSTRUCTIONS TO VISIBILITY.

...SOUTH CENTRAL NEBRASKA...

CITY           SKY/WX    TMP DP  RH WIND       PRES   REMARKS
GRAND ISLAND   CLOUDY    41  41 100 SW6       29.62R
HASTINGS       CLOUDY    42  41  96 CALM      29.61F
KEARNEY        CLOUDY    41  37  87 S5        29.61S
ORD            CLOUDY    41  39  93 S6        29.58S FOG
YORK           PTCLDY    41  41 100 S6        29.62F
AURORA         CLOUDY    41  41 100 S5        29.61S
LEXINGTON      CLOUDY    41  39  93 S5        29.59S
HOLDREGE       CLOUDY    41  40  97 CALM      29.60S FOG
HEBRON         CLOUDY    42  42  98 SE3       29.63S FOG

...NEBRASKA PANHANDLE...

CITY           SKY/WX    TMP DP  RH WIND       PRES   REMARKS
CHADRON        CLEAR     40  28  62 SW3       29.48S
ALLIANCE       CLEAR     50  25  37 W5        29.48R
SCOTTSBLUFF    CLEAR     51  24  34 W8        29.49S
SIDNEY         CLEAR     47  31  53 S7        29.50S

...WESTERN AND NORTH CENTRAL NEBRASKA...

CITY           SKY/WX    TMP DP  RH WIND       PRES   REMARKS
VALENTINE      CLEAR     47  30  51 S14       29.47R
AINSWORTH      CLEAR     40  37  89 S12       29.51S WCI  32
ONEILL         CLOUDY    42  42  99 S8        29.57S FOG
BROKEN BOW     CLOUDY    41  39  93 S12G25    29.56F
IMPERIAL       CLEAR     39  35  86 SE10      29.54R WCI  32
NORTH PLATTE   CLOUDY    39  39 100 S8        29.56S WCI  33
MCCOOK         CLOUDY    37  37 100 CALM      29.57F FOG

...EASTERN NEBRASKA...

CITY           SKY/WX    TMP DP  RH WIND       PRES   REMARKS
NORFOLK        CLOUDY    40  38  93 S8        29.62S FOG     WCI  34
SO SIOUX CITY  FOG       41  40  96 SE6       29.65F VSB 1/2
TEKAMAH        CLOUDY    39  38  96 SE5       29.66S FOG
COLUMBUS       CLOUDY    39  37  93 SE3       29.64S
ALBION         FOG       39  39 100 S3        29.62R VSB 1/2
OMAHA EPPLEY   CLOUDY    42  38  85 SE6       29.66F FOG
OFFUTT AFB     CLOUDY    43  43 100 CALM      29.65F FOG
MILLARD        FOG       44  42  95 CALM      29.65F VSB 3/4
LINCOLN        CLOUDY    42  42 100 CALM      29.66S FOG
NEBRASKA CITY  CLOUDY    42  42 100 CALM      29.66S FOG
BEATRICE       FOG       43  43 100 CALM      29.64S VSB 3/4
FALLS CITY     CLOUDY    45  43  93 SE7       29.65S

...NORTHERN KANSAS...

CITY           SKY/WX    TMP DP  RH WIND       PRES   REMARKS
GOODLAND       CLOUDY    36  35  96 E9        29.53S WCI  29
HILL CITY      CLOUDY    46  42  86 E8        29.58F
NORTON         CLOUDY    43  37  81 E3        29.58S
PHILLIPSBURG   CLOUDY    43  43 100 CALM      29.60F
SMITH CENTER   FOG       41  41 100 CALM      29.61S VSB 1/2
HAYS           CLOUDY    45  43  93 CALM      29.59S
RUSSELL        CLOUDY    45  44  97 SE6       29.58R
CONCORDIA      CLOUDY    43  43 100 SE6       29.62R FOG
SALINA         CLOUDY    48  45  89 SE8       29.62R FOG
TOPEKA         CLOUDY    48  44  86 SE6       29.64F



USA.gov is the U.S. government's official web portal to all federal, state and local government web resources and services.